[[{"header":{"parameterUnit":"m.s-1","parameterCategory":1,"la1":30.2991,"la2":30.254,"lo1":-89.0895,"lo2":-89.0444,"dy":0.0017,"dx":0.0017,"nx":28,"ny":28,"refTime":"2025-02-08T03:00:00:Z","depth":0,"parameterNumber":2,"parameterNumberName":"U-component_of_WINDS"},"data":[0,0,0,0,0,0,0,0,0,0,0,0,0,0,0,0,0,0,0,0,0,0,0,0,0,0,0,0,0,0,0,0,0,0,0,0,0,0,0,0,0,0,0,0,0,0,0,0,0,0,0,0,0,0,0,0,0,0,-0.7607,-0.7608,0,-0.7668,-0.7668,-0.7669,-0.7703,-0.7703,-0.7703,-0.7703,-0.7765,-0.7766,-0.7768,0,0,0,0,0,0,0,0,0,0,0,0,0,-0.7521,-0.7522,-0.7607,-0.7608,-0.7609,-0.7668,-0.7668,-0.7669,-0.7703,-0.7703,-0.7703,-0.7703,-0.7764,-0.7766,-0.7768,0,0,0,0,0,0,0,0,0,0,0,0,0,-0.7567,-0.7522,-0.7607,-0.7633,-0.7636,-0.7667,-0.7668,-0.767,-0.7703,-0.7703,-0.7703,-0.7703,-0.7763,-0.7766,-0.7768,-0.7779,0,0,-0.7775,-0.7776,0,0,0,0,0,0,0,0,-0.7565,-0.757,-0.7628,-0.7631,-0.7634,-0.7678,-0.766,-0.7706,-0.7703,-0.7677,-0.7703,-0.7703,-0.7736,-0.774,-0.7751,-0.7782,-0.7785,-0.7775,-0.7777,-0.7778,-0.7778,0,0,0,0,0,0,0,-0.7561,-0.7568,-0.7631,-0.7629,-0.7633,-0.7641,-0.7648,-0.7669,-0.7705,-0.7679,-0.7682,-0.7689,-0.7737,-0.7749,-0.7753,-0.7786,-0.7775,-0.7777,-0.7779,-0.778,-0.7828,-0.7828,0,0,0,0,0,0,-0.7554,-0.7565,-0.7629,-0.7633,-0.7599,-0.7642,-0.765,-0.7664,-0.7705,-0.7711,-0.7689,-0.769,-0.7745,-0.775,-0.7755,-0.7771,-0.7778,-0.778,-0.7781,-0.7828,-0.7828,-0.7828,0,0,0,0,0,0,-0.7552,-0.7559,-0.7627,-0.76,-0.7609,-0.7644,-0.7659,-0.7665,-0.7676,-0.7712,-0.7718,-0.7694,-0.7745,-0.7752,-0.7773,-0.7773,-0.7781,-0.7783,-0.7828,-0.7828,-0.7828,-0.7802,0,0,0,0,0,0,-0.7549,-0.7559,-0.7563,-0.76,-0.761,-0.7644,-0.7659,-0.7666,-0.768,-0.7683,-0.7718,-0.7724,-0.7746,-0.7769,-0.7775,-0.7777,-0.7785,-0.7828,-0.7828,-0.7828,-0.7803,-0.7801,-0.7799,0,0,0,0,0,-0.7546,-0.7554,-0.7563,-0.7571,-0.7617,-0.7644,-0.765,-0.7675,-0.768,-0.7685,-0.7708,-0.7723,-0.7772,-0.7771,-0.7778,-0.778,-0.7829,-0.7828,-0.7828,-0.7803,-0.7801,-0.7799,0,0,0,0,0,0,-0.7517,-0.7559,-0.757,-0.759,-0.7613,-0.7649,-0.7656,-0.7671,-0.7693,-0.7695,-0.7724,-0.7732,-0.775,-0.7767,-0.7765,-0.7793,-0.7802,-0.7803,-0.7781,-0.7779,-0.7777,-0.7772,-0.7787,0,0,0,0,0,-0.7512,-0.7531,-0.7567,-0.758,-0.7591,-0.7622,-0.7634,-0.7651,-0.7676,-0.7686,-0.771,-0.7734,-0.7755,-0.7768,-0.7789,-0.7805,-0.7813,-0.781,-0.7808,-0.7806,-0.7807,-0.7816,-0.7815,-0.7827,-0.7827,-0.7827,0,0,-0.7504,-0.7529,-0.7539,-0.7575,-0.7595,-0.7613,-0.763,-0.7648,-0.7662,-0.7689,-0.771,-0.7728,-0.7757,-0.7775,-0.7785,-0.779,-0.7805,-0.7806,-0.7804,-0.7806,-0.7816,-0.7815,-0.7814,-0.7827,-0.7827,-0.7827,0,0,-0.7497,-0.7519,-0.7532,-0.7551,-0.7581,-0.7601,-0.7604,-0.7639,-0.7652,-0.7673,-0.7694,-0.771,-0.7746,-0.7765,-0.7779,-0.7779,-0.7794,-0.7785,-0.7775,-0.7784,-0.7783,-0.7782,-0.7782,-0.7781,-0.7786,-0.7785,-0.7785,0,-0.7483,-0.7511,-0.7537,-0.7554,-0.7569,-0.7594,-0.7608,-0.7625,-0.7661,-0.767,-0.7676,-0.772,-0.7741,-0.7764,-0.7764,-0.7775,-0.7779,-0.7781,-0.7781,-0.7781,-0.778,-0.778,-0.778,-0.7784,-0.7784,-0.7784,-0.7785,0,-0.7491,-0.751,-0.7518,-0.755,-0.7566,-0.7581,-0.7609,-0.7622,-0.7638,-0.7657,-0.7678,-0.7704,-0.7731,-0.7737,-0.7753,-0.7762,-0.7765,-0.7775,-0.7785,-0.7777,-0.7778,-0.7778,-0.7782,-0.7783,-0.7783,-0.7783,0,0,-0.7469,-0.7515,-0.7517,-0.7532,-0.7567,-0.7582,-0.7598,-0.7623,-0.7633,-0.7657,-0.767,-0.7699,-0.7709,-0.7725,-0.7743,-0.7751,-0.7748,-0.776,-0.7761,-0.7757,-0.776,-0.7751,-0.7751,-0.7758,-0.7758,-0.7758,-0.7757,0,-0.7467,-0.7497,-0.752,-0.7541,-0.7559,-0.7583,-0.7596,-0.7619,-0.7637,-0.7654,-0.7675,-0.7695,-0.7706,-0.7716,-0.7725,-0.7746,-0.7749,-0.7747,-0.7771,-0.7772,-0.7763,-0.7751,-0.7743,-0.774,-0.7758,-0.7758,-0.7758,0,-0.7469,-0.7491,-0.7513,-0.7545,-0.7553,-0.7565,-0.759,-0.7607,-0.7632,-0.7645,-0.7662,-0.7681,-0.7698,-0.7706,-0.7731,-0.7729,-0.774,-0.7752,-0.7753,-0.7756,-0.7764,-0.7753,-0.774,-0.774,-0.7758,-0.7758,-0.7758,0,-0.7449,-0.7484,-0.7502,-0.7514,-0.7552,-0.756,-0.7576,-0.7601,-0.7615,-0.7637,-0.7646,-0.767,-0.7682,-0.77,-0.7724,-0.7728,-0.7746,-0.7756,-0.7757,-0.7756,-0.7759,-0.7759,-0.7747,-0.7767,-0.7767,-0.7767,-0.7767,0,-0.7445,-0.7458,-0.7494,-0.7505,-0.7519,-0.7546,-0.756,-0.7578,-0.7601,-0.7615,-0.7638,-0.7651,-0.7682,-0.7699,-0.7718,-0.7735,-0.774,-0.7751,-0.7756,-0.7749,-0.7747,-0.7756,-0.7757,-0.7767,-0.7767,-0.7767,-0.7767,0,-0.7426,-0.745,-0.7471,-0.7505,-0.7513,-0.7523,-0.7552,-0.7563,-0.7582,-0.76,-0.7606,-0.7636,-0.7657,-0.7683,-0.7712,-0.7725,-0.774,-0.7748,-0.7731,-0.7734,-0.7733,-0.7732,-0.7727,-0.7727,-0.7746,-0.7746,-0.7746,0,-0.7421,-0.7431,-0.7465,-0.7477,-0.7492,-0.751,-0.7524,-0.755,-0.7564,-0.7593,-0.7601,-0.7623,-0.7643,-0.7675,-0.77,-0.7722,-0.773,-0.7726,-0.7734,-0.7726,-0.7729,-0.7728,-0.7729,-0.7724,-0.7724,-0.7724,-0.7724,0,-0.741,-0.7421,-0.744,-0.7463,-0.7479,-0.7499,-0.7519,-0.7527,-0.7558,-0.7572,-0.7593,-0.7608,-0.7638,-0.766,-0.7685,-0.7702,-0.7717,-0.7721,-0.7722,-0.7715,-0.7705,-0.771,-0.7726,-0.7721,-0.7721,-0.7722,-0.7722,-0.7722,-0.7398,-0.7407,-0.7433,-0.7453,-0.7471,-0.7489,-0.7501,-0.7522,-0.754,-0.7566,-0.7581,-0.7601,-0.7626,-0.7662,-0.7678,-0.7694,-0.77,-0.7702,-0.7703,-0.7702,-0.77,-0.7703,-0.7699,-0.7699,-0.7699,-0.77,-0.77,0,-0.7387,-0.7404,-0.7423,-0.745,-0.7466,-0.7479,-0.7502,-0.7515,-0.7533,-0.7554,-0.7573,-0.7597,-0.7618,-0.7644,-0.7667,-0.7675,-0.7683,-0.7681,-0.768,-0.7683,-0.7694,-0.769,-0.7674,-0.7674,-0.7674,-0.7674,-0.7674,-0.7674,-0.7384,-0.7401,-0.7415,-0.7441,-0.7458,-0.7479,-0.7491,-0.7507,-0.7525,-0.7551,-0.7568,-0.7585,-0.7608,-0.7633,-0.7653,-0.766,-0.7667,-0.7662,-0.7671,-0.7681,-0.7683,-0.7685,-0.7682,-0.7664,-0.7664,-0.766,-0.766,-0.7659]},{"header":{"parameterUnit":"m.s-1","parameterCategory":1,"la1":30.2991,"la2":30.254,"lo1":-89.0895,"lo2":-89.0444,"dy":0.0017,"dx":0.0017,"nx":28,"ny":28,"refTime":"2025-02-08T03:00:00:Z","depth":0,"parameterNumber":3,"parameterNumberName":"V-component_of_WINDS"},"data":[0,0,0,0,0,0,0,0,0,0,0,0,0,0,0,0,0,0,0,0,0,0,0,0,0,0,0,0,0,0,0,0,0,0,0,0,0,0,0,0,0,0,0,0,0,0,0,0,0,0,0,0,0,0,0,0,0,0,2.548,2.5481,0,2.5638,2.564,2.5642,2.5689,2.5688,2.5688,2.5687,2.5853,2.5858,2.5863,0,0,0,0,0,0,0,0,0,0,0,0,0,2.5222,2.5227,2.5479,2.5481,2.5483,2.5638,2.564,2.5642,2.5689,2.5688,2.5687,2.5687,2.5852,2.5858,2.5864,0,0,0,0,0,0,0,0,0,0,0,0,0,2.5353,2.5228,2.5479,2.5525,2.5531,2.5638,2.564,2.5643,2.569,2.5688,2.5687,2.5686,2.585,2.5857,2.5865,2.5938,0,0,2.5889,2.5892,0,0,0,0,0,0,0,0,2.5345,2.5362,2.5517,2.5522,2.5529,2.5643,2.5611,2.5742,2.569,2.563,2.5687,2.5685,2.5784,2.5798,2.583,2.5946,2.5953,2.5889,2.5894,2.5897,2.59,0,0,0,0,0,0,0,2.5336,2.5356,2.5542,2.5519,2.5526,2.554,2.5557,2.5636,2.5712,2.5635,2.5639,2.5657,2.5788,2.5823,2.5834,2.5955,2.5889,2.5896,2.5901,2.5904,2.6142,2.6143,0,0,0,0,0,0,2.5319,2.5348,2.5537,2.5547,2.5432,2.5546,2.5565,2.5608,2.5711,2.5726,2.5657,2.5658,2.581,2.5825,2.584,2.5935,2.5897,2.5905,2.5909,2.614,2.6142,2.6144,0,0,0,0,0,0,2.5313,2.5335,2.5531,2.5449,2.5475,2.5551,2.5599,2.5611,2.5646,2.5728,2.5743,2.5679,2.5809,2.5829,2.5914,2.5941,2.5908,2.5915,2.6138,2.6141,2.6143,2.6123,0,0,0,0,0,0,2.5305,2.5333,2.536,2.5449,2.5479,2.56,2.5601,2.5615,2.5659,2.5662,2.5752,2.5766,2.581,2.5902,2.5921,2.5952,2.5921,2.6136,2.6139,2.6142,2.6122,2.6125,2.6127,0,0,0,0,0,2.5296,2.5348,2.5361,2.5384,2.5514,2.5601,2.5619,2.5667,2.5661,2.569,2.5743,2.5763,2.5935,2.591,2.5933,2.5965,2.6135,2.6138,2.6142,2.6121,2.6124,2.6127,0,0,0,0,0,0,2.5261,2.5361,2.5376,2.5458,2.5521,2.5609,2.5647,2.5669,2.5735,2.5735,2.5793,2.5814,2.5894,2.5938,2.5909,2.6043,2.6036,2.6044,2.6012,2.6016,2.6018,2.6007,2.5928,0,0,0,0,0,2.5263,2.5324,2.5408,2.5473,2.5503,2.557,2.5609,2.5641,2.5709,2.5736,2.5796,2.5862,2.5931,2.5976,2.6043,2.6128,2.615,2.6162,2.6164,2.6166,2.6173,2.6224,2.6231,2.6156,2.6156,2.6156,0,0,2.5268,2.533,2.5365,2.5467,2.552,2.5584,2.5592,2.5658,2.5707,2.5747,2.583,2.5876,2.5954,2.6039,2.608,2.6079,2.6199,2.6171,2.6172,2.6178,2.6229,2.6236,2.6242,2.6158,2.6158,2.6158,0,0,2.5309,2.5361,2.5422,2.5474,2.5553,2.5597,2.5612,2.5697,2.5729,2.5813,2.5845,2.5905,2.6022,2.6077,2.612,2.6184,2.6206,2.6205,2.622,2.6269,2.6275,2.628,2.6306,2.6314,2.6211,2.6211,2.6211,0,2.5306,2.5402,2.5451,2.5516,2.5562,2.56,2.5663,2.5712,2.5809,2.5841,2.5837,2.5987,2.6042,2.6142,2.6157,2.619,2.6211,2.6196,2.6269,2.6276,2.6282,2.6307,2.6316,2.6211,2.6211,2.6211,2.6211,0,2.5395,2.5461,2.5501,2.5594,2.5644,2.5708,2.5768,2.5813,2.5841,2.5886,2.5973,2.604,2.6123,2.6149,2.6177,2.6254,2.6251,2.6258,2.6252,2.6288,2.6312,2.6322,2.621,2.621,2.621,2.6211,0,0,2.542,2.5539,2.5553,2.5597,2.5687,2.574,2.5807,2.5888,2.5927,2.5993,2.6052,2.6151,2.6158,2.6208,2.6242,2.6284,2.6334,2.6287,2.6289,2.6295,2.6427,2.6423,2.6433,2.6349,2.6351,2.6352,2.6421,0,2.5475,2.5594,2.5641,2.5739,2.5803,2.584,2.5899,2.5962,2.6006,2.6068,2.6117,2.6187,2.619,2.6221,2.6264,2.6319,2.6362,2.6314,2.6407,2.641,2.6388,2.6445,2.6441,2.6503,2.6431,2.6432,2.6434,0,2.5555,2.5622,2.5726,2.5811,2.5839,2.5891,2.597,2.6028,2.6101,2.613,2.6186,2.6218,2.6292,2.628,2.6384,2.6351,2.6391,2.6424,2.6428,2.644,2.6425,2.6462,2.6523,2.6533,2.6449,2.6448,2.6447,0,2.5566,2.5682,2.576,2.5796,2.5896,2.5932,2.5975,2.6047,2.6093,2.6163,2.6194,2.6271,2.6314,2.6374,2.6427,2.6413,2.6528,2.6519,2.6556,2.6555,2.658,2.6578,2.6652,2.6602,2.6602,2.6602,2.6602,0,2.5624,2.5687,2.5766,2.5815,2.5887,2.5941,2.6012,2.6058,2.6122,2.6182,2.6219,2.6274,2.634,2.6405,2.6447,2.6528,2.6547,2.6574,2.6585,2.6573,2.6569,2.6602,2.66,2.6605,2.6604,2.6604,2.6603,0,2.5649,2.5704,2.5792,2.588,2.5903,2.5953,2.6029,2.6079,2.6124,2.62,2.6221,2.6293,2.6371,2.643,2.6531,2.656,2.6648,2.6657,2.6623,2.6629,2.6663,2.666,2.6762,2.6779,2.6715,2.6716,2.6716,0,2.5683,2.5732,2.5825,2.5867,2.5911,2.5978,2.6025,2.608,2.6129,2.6217,2.6256,2.6337,2.6404,2.6528,2.6591,2.667,2.6683,2.6714,2.6696,2.6682,2.6687,2.6685,2.6691,2.6717,2.6717,2.6718,2.6718,0,2.5739,2.5764,2.583,2.5907,2.5963,2.6026,2.609,2.6122,2.619,2.6242,2.6322,2.6375,2.6478,2.6559,2.6644,2.6691,2.6717,2.6723,2.6736,2.6725,2.6703,2.6718,2.6632,2.6721,2.672,2.672,2.672,2.672,2.5772,2.5819,2.5892,2.5965,2.6019,2.6078,2.613,2.6182,2.6249,2.6337,2.6366,2.6449,2.6524,2.664,2.6688,2.6756,2.6756,2.6774,2.678,2.6784,2.6784,2.669,2.6771,2.6771,2.6771,2.6771,2.6771,0,2.5832,2.5881,2.5948,2.6036,2.6094,2.6111,2.6184,2.6232,2.6305,2.6371,2.6437,2.653,2.6609,2.6678,2.676,2.6801,2.6815,2.6821,2.682,2.6831,2.6778,2.676,2.6809,2.6809,2.6809,2.6809,2.6809,2.6809,2.587,2.5951,2.5985,2.6094,2.6143,2.6224,2.6264,2.632,2.6374,2.6476,2.6541,2.6585,2.6654,2.6742,2.6816,2.6834,2.6864,2.6868,2.6889,2.6839,2.6834,2.683,2.6813,2.6873,2.6873,2.6937,2.6938,2.6938]}]]